Saint Bonnet de Bellac- Haute Vienne - France
Donnes mto: vendredi, 09/12/2011
Date Horaire Temp. E. Hum. E. P.atmo. Pluie Vent Direction Direction Ensoleilleme Solaire P. de rose Temp au vent Rafales
09/12/2011 00:00 10,8 C 89 % 1019,6 hPa 0,0 mm 8,3 km/h (2 Bft) SO 225 0 min 0 W/m 9,1 C 10,8 C 19,8 km/h (3 Bft)
09/12/2011 00:05 10,7 C 89 % 1019,6 hPa 0,0 mm 8,6 km/h (2 Bft) SO 225 0 min 0 W/m 9,0 C 10,7 C 11,9 km/h (2 Bft)
09/12/2011 00:10 10,7 C 90 % 1019,7 hPa 0,0 mm 10,8 km/h (2 Bft) S 180 0 min 0 W/m 9,1 C 10,7 C 11,9 km/h (2 Bft)
09/12/2011 00:15 10,7 C 90 % 1019,7 hPa 0,0 mm 7,9 km/h (2 Bft) S-SO 202 0 min 0 W/m 9,1 C 10,7 C 13,7 km/h (3 Bft)
09/12/2011 00:20 10,7 C 90 % 1019,8 hPa 0,0 mm 7,2 km/h (2 Bft) SO 225 0 min 0 W/m 9,1 C 10,7 C 7,2 km/h (2 Bft)
09/12/2011 00:25 10,8 C 91 % 1019,7 hPa 0,0 mm 13,3 km/h (3 Bft) S-SO 202 0 min 0 W/m 9,4 C 10,8 C 13,3 km/h (3 Bft)
09/12/2011 00:30 10,6 C 91 % 1019,8 hPa 0,0 mm 7,6 km/h (2 Bft) SO 225 0 min 0 W/m 9,2 C 10,6 C 11,2 km/h (2 Bft)
09/12/2011 00:35 10,6 C 92 % 1019,9 hPa 0,1 mm 10,1 km/h (2 Bft) SO 225 0 min 0 W/m 9,4 C 10,6 C 11,9 km/h (2 Bft)
09/12/2011 00:40 10,6 C 92 % 1019,9 hPa 0,0 mm 6,1 km/h (2 Bft) S-SO 202 0 min 0 W/m 9,4 C 10,6 C 9,7 km/h (2 Bft)
09/12/2011 00:45 10,5 C 93 % 1019,9 hPa 0,0 mm 11,9 km/h (2 Bft) SO 225 0 min 0 W/m 9,4 C 10,5 C 20,5 km/h (4 Bft)
09/12/2011 00:50 10,5 C 93 % 1019,7 hPa 0,1 mm 7,2 km/h (2 Bft) S-SO 202 0 min 0 W/m 9,4 C 10,5 C 11,9 km/h (2 Bft)
09/12/2011 00:55 10,4 C 93 % 1019,5 hPa 0,1 mm 11,5 km/h (2 Bft) S-SO 202 0 min 0 W/m 9,3 C 10,4 C 15,5 km/h (3 Bft)
09/12/2011 01:00 10,4 C 94 % 1019,4 hPa 0,0 mm 9,4 km/h (2 Bft) SO 225 0 min 0 W/m 9,5 C 10,4 C 15,8 km/h (3 Bft)
09/12/2011 01:05 10,4 C 94 % 1019,4 hPa 0,0 mm 10,8 km/h (2 Bft) SO 225 0 min 0 W/m 9,5 C 10,4 C 16,6 km/h (3 Bft)
09/12/2011 01:10 10,4 C 94 % 1019,4 hPa 0,1 mm 5,4 km/h (2 Bft) O-SO 247 0 min 0 W/m 9,5 C 10,4 C 8,3 km/h (2 Bft)
09/12/2011 01:15 10,3 C 94 % 1019,3 hPa 0,0 mm 1,8 km/h (1 Bft) S-SO 202 0 min 0 W/m 9,4 C 10,3 C 4,0 km/h (1 Bft)
09/12/2011 01:20 10,3 C 94 % 1019,3 hPa 0,0 mm 4,0 km/h (1 Bft) S-SO 202 0 min 0 W/m 9,4 C 10,3 C 8,6 km/h (2 Bft)
09/12/2011 01:25 10,4 C 94 % 1019,2 hPa 0,0 mm 7,9 km/h (2 Bft) O-SO 247 0 min 0 W/m 9,5 C 10,4 C 12,6 km/h (3 Bft)
09/12/2011 01:30 10,4 C 94 % 1019,1 hPa 0,0 mm 9,4 km/h (2 Bft) S-SO 202 0 min 0 W/m 9,5 C 10,4 C 12,2 km/h (2 Bft)
09/12/2011 01:35 10,4 C 94 % 1019,0 hPa 0,0 mm 12,2 km/h (2 Bft) SO 225 0 min 0 W/m 9,5 C 10,4 C 13,0 km/h (3 Bft)
09/12/2011 01:40 10,5 C 94 % 1019,0 hPa 0,0 mm 10,1 km/h (2 Bft) O-SO 247 0 min 0 W/m 9,6 C 10,5 C 12,6 km/h (3 Bft)
09/12/2011 01:45 10,5 C 94 % 1018,9 hPa 0,0 mm 7,9 km/h (2 Bft) SO 225 0 min 0 W/m 9,6 C 10,5 C 9,7 km/h (2 Bft)
09/12/2011 01:50 10,5 C 95 % 1018,8 hPa 0,0 mm 9,7 km/h (2 Bft) S-SO 202 0 min 0 W/m 9,7 C 10,5 C 17,3 km/h (3 Bft)
09/12/2011 01:55 10,5 C 94 % 1018,7 hPa 0,0 mm 7,2 km/h (2 Bft) S-SO 202 0 min 0 W/m 9,6 C 10,5 C 14,4 km/h (3 Bft)
09/12/2011 02:02 10,5 C 94 % 1018,7 hPa 0,0 mm 7,9 km/h (2 Bft) S 180 0 min 0 W/m 9,6 C 10,5 C 9,7 km/h (2 Bft)
09/12/2011 02:05 10,6 C 95 % 1018,7 hPa 0,0 mm 10,1 km/h (2 Bft) S-SO 202 0 min 0 W/m 9,8 C 10,6 C 16,2 km/h (3 Bft)
09/12/2011 02:10 10,6 C 94 % 1018,7 hPa 0,0 mm 8,6 km/h (2 Bft) O-SO 247 0 min 0 W/m 9,7 C 10,6 C 13,3 km/h (3 Bft)
09/12/2011 02:15 10,6 C 94 % 1018,6 hPa 0,0 mm 6,8 km/h (2 Bft) S-SO 202 0 min 0 W/m 9,7 C 10,6 C 13,0 km/h (3 Bft)
09/12/2011 02:20 10,6 C 94 % 1018,5 hPa 0,0 mm 7,6 km/h (2 Bft) S-SO 202 0 min 0 W/m 9,7 C 10,6 C 12,2 km/h (2 Bft)
09/12/2011 02:25 10,6 C 94 % 1018,5 hPa 0,0 mm 5,8 km/h (2 Bft) SO 225 0 min 0 W/m 9,7 C 10,6 C 12,6 km/h (3 Bft)
09/12/2011 02:30 10,6 C 94 % 1018,6 hPa 0,0 mm 5,4 km/h (2 Bft) SO 225 0 min 0 W/m 9,7 C 10,6 C 9,7 km/h (2 Bft)
09/12/2011 02:35 10,6 C 94 % 1018,5 hPa 0,0 mm 6,1 km/h (2 Bft) S-SO 202 0 min 0 W/m 9,7 C 10,6 C 7,6 km/h (2 Bft)
09/12/2011 02:40 10,6 C 94 % 1018,6 hPa 0,0 mm 6,8 km/h (2 Bft) O-SO 247 0 min 0 W/m 9,7 C 10,6 C 10,8 km/h (2 Bft)
09/12/2011 02:45 10,6 C 94 % 1018,6 hPa 0,0 mm 6,5 km/h (2 Bft) S-SO 202 0 min 0 W/m 9,7 C 10,6 C 13,0 km/h (3 Bft)
09/12/2011 02:50 10,6 C 94 % 1018,6 hPa 0,0 mm 8,6 km/h (2 Bft) SO 225 0 min 0 W/m 9,7 C 10,6 C 12,2 km/h (2 Bft)
09/12/2011 02:55 10,6 C 94 % 1018,4 hPa 0,0 mm 6,8 km/h (2 Bft) SO 225 0 min 0 W/m 9,7 C 10,6 C 11,9 km/h (2 Bft)
09/12/2011 03:00 10,6 C 94 % 1018,4 hPa 0,0 mm 7,2 km/h (2 Bft) S-SO 202 0 min 0 W/m 9,7 C 10,6 C 11,9 km/h (2 Bft)
09/12/2011 03:05 10,6 C 94 % 1018,4 hPa 0,0 mm 11,5 km/h (2 Bft) SO 225 0 min 0 W/m 9,7 C 10,6 C 11,5 km/h (2 Bft)
09/12/2011 03:10 10,6 C 94 % 1018,5 hPa 0,0 mm 4,7 km/h (1 Bft) S-SO 202 0 min 0 W/m 9,7 C 10,6 C 7,2 km/h (2 Bft)
09/12/2011 03:15 10,5 C 94 % 1018,4 hPa 0,0 mm 9,0 km/h (2 Bft) SO 225 0 min 0 W/m 9,6 C 10,5 C 11,5 km/h (2 Bft)
09/12/2011 03:20 10,5 C 93 % 1018,3 hPa 0,0 mm 7,6 km/h (2 Bft) O-SO 247 0 min 0 W/m 9,4 C 10,5 C 10,4 km/h (2 Bft)
09/12/2011 03:25 10,5 C 93 % 1018,2 hPa 0,0 mm 7,9 km/h (2 Bft) SO 225 0 min 0 W/m 9,4 C 10,5 C 10,4 km/h (2 Bft)
09/12/2011 03:30 10,4 C 93 % 1018,3 hPa 0,0 mm 7,6 km/h (2 Bft) S-SO 202 0 min 0 W/m 9,3 C 10,4 C 13,7 km/h (3 Bft)
09/12/2011 03:35 10,4 C 93 % 1018,2 hPa 0,0 mm 8,6 km/h (2 Bft) S-SO 202 0 min 0 W/m 9,3 C 10,4 C 11,2 km/h (2 Bft)
09/12/2011 03:40 10,4 C 93 % 1018,1 hPa 0,0 mm 7,6 km/h (2 Bft) S 180 0 min 0 W/m 9,3 C 10,4 C 10,8 km/h (2 Bft)
09/12/2011 03:45 10,4 C 93 % 1018,1 hPa 0,0 mm 7,9 km/h (2 Bft) SO 225 0 min 0 W/m 9,3 C 10,4 C 13,0 km/h (3 Bft)
09/12/2011 03:50 10,4 C 93 % 1018,0 hPa 0,0 mm 8,3 km/h (2 Bft) S-SO 202 0 min 0 W/m 9,3 C 10,4 C 11,9 km/h (2 Bft)
09/12/2011 03:55 10,4 C 93 % 1018,0 hPa 0,0 mm 7,9 km/h (2 Bft) SO 225 0 min 0 W/m 9,3 C 10,4 C 11,2 km/h (2 Bft)
09/12/2011 04:00 10,4 C 93 % 1018,1 hPa 0,0 mm 6,8 km/h (2 Bft) S-SO 202 0 min 0 W/m 9,3 C 10,4 C 9,4 km/h (2 Bft)
09/12/2011 04:05 10,4 C 93 % 1018,0 hPa 0,0 mm 7,9 km/h (2 Bft) S-SO 202 0 min 0 W/m 9,3 C 10,4 C 13,3 km/h (3 Bft)
09/12/2011 04:10 10,4 C 93 % 1018,1 hPa 0,0 mm 9,4 km/h (2 Bft) S-SE 157 0 min 0 W/m 9,3 C 10,4 C 11,5 km/h (2 Bft)
09/12/2011 04:15 10,4 C 93 % 1018,0 hPa 0,0 mm 7,6 km/h (2 Bft) S-SO 202 0 min 0 W/m 9,3 C 10,4 C 7,6 km/h (2 Bft)
09/12/2011 04:20 10,5 C 93 % 1018,0 hPa 0,0 mm 5,0 km/h (1 Bft) SO 225 0 min 0 W/m 9,4 C 10,5 C 5,0 km/h (1 Bft)
09/12/2011 04:25 10,4 C 93 % 1018,0 hPa 0,0 mm 7,9 km/h (2 Bft) O-SO 247 0 min 0 W/m 9,3 C 10,4 C 15,5 km/h (3 Bft)
09/12/2011 04:30 10,5 C 93 % 1017,9 hPa 0,0 mm 9,7 km/h (2 Bft) O-SO 247 0 min 0 W/m 9,4 C 10,5 C 14,0 km/h (3 Bft)
09/12/2011 04:35 10,5 C 93 % 1018,0 hPa 0,0 mm 5,0 km/h (1 Bft) S-SO 202 0 min 0 W/m 9,4 C 10,5 C 6,5 km/h (2 Bft)
09/12/2011 04:40 10,5 C 93 % 1017,9 hPa 0,0 mm 7,9 km/h (2 Bft) S-SO 202 0 min 0 W/m 9,4 C 10,5 C 10,4 km/h (2 Bft)
09/12/2011 04:45 10,5 C 93 % 1017,9 hPa 0,0 mm 6,8 km/h (2 Bft) O-SO 247 0 min 0 W/m 9,4 C 10,5 C 11,5 km/h (2 Bft)
09/12/2011 04:50 10,6 C 93 % 1017,8 hPa 0,0 mm 13,0 km/h (3 Bft) SO 225 0 min 0 W/m 9,5 C 10,6 C 13,0 km/h (3 Bft)
09/12/2011 04:55 10,6 C 93 % 1017,8 hPa 0,0 mm 9,7 km/h (2 Bft) SO 225 0 min 0 W/m 9,5 C 10,6 C 14,4 km/h (3 Bft)
09/12/2011 05:00 10,6 C 93 % 1017,8 hPa 0,0 mm 9,4 km/h (2 Bft) SO 225 0 min 0 W/m 9,5 C 10,6 C 15,1 km/h (3 Bft)
09/12/2011 05:05 10,6 C 93 % 1017,7 hPa 0,0 mm 10,4 km/h (2 Bft) O-SO 247 0 min 0 W/m 9,5 C 10,6 C 11,5 km/h (2 Bft)
09/12/2011 05:10 10,6 C 93 % 1017,6 hPa 0,0 mm 9,7 km/h (2 Bft) S-SO 202 0 min 0 W/m 9,5 C 10,6 C 18,0 km/h (3 Bft)
09/12/2011 05:15 10,6 C 93 % 1017,6 hPa 0,0 mm 7,2 km/h (2 Bft) SO 225 0 min 0 W/m 9,5 C 10,6 C 7,2 km/h (2 Bft)
09/12/2011 05:20 10,6 C 93 % 1017,6 hPa 0,0 mm 9,7 km/h (2 Bft) S-SO 202 0 min 0 W/m 9,5 C 10,6 C 11,2 km/h (2 Bft)
09/12/2011 05:25 10,5 C 93 % 1017,5 hPa 0,0 mm 6,8 km/h (2 Bft) S-SO 202 0 min 0 W/m 9,4 C 10,5 C 9,0 km/h (2 Bft)
09/12/2011 05:30 10,4 C 93 % 1017,6 hPa 0,0 mm 11,9 km/h (2 Bft) SO 225 0 min 0 W/m 9,3 C 10,4 C 18,7 km/h (3 Bft)
09/12/2011 05:35 10,5 C 94 % 1017,7 hPa 0,0 mm 10,1 km/h (2 Bft) S-SO 202 0 min 0 W/m 9,6 C 10,5 C 19,4 km/h (3 Bft)
09/12/2011 05:40 10,5 C 94 % 1017,6 hPa 0,0 mm 9,0 km/h (2 Bft) S-SO 202 0 min 0 W/m 9,6 C 10,5 C 14,8 km/h (3 Bft)
09/12/2011 05:45 10,4 C 94 % 1017,6 hPa 0,0 mm 7,9 km/h (2 Bft) SO 225 0 min 0 W/m 9,5 C 10,4 C 14,8 km/h (3 Bft)
09/12/2011 05:50 10,4 C 94 % 1017,6 hPa 0,0 mm 8,3 km/h (2 Bft) O-SO 247 0 min 0 W/m 9,5 C 10,4 C 14,4 km/h (3 Bft)
09/12/2011 05:55 10,4 C 94 % 1017,6 hPa 0,0 mm 10,8 km/h (2 Bft) SO 225 0 min 0 W/m 9,5 C 10,4 C 13,0 km/h (3 Bft)
09/12/2011 06:00 10,4 C 94 % 1017,6 hPa 0,0 mm 8,6 km/h (2 Bft) SO 225 0 min 0 W/m 9,5 C 10,4 C 11,2 km/h (2 Bft)
09/12/2011 06:05 10,4 C 94 % 1017,6 hPa 0,0 mm 11,9 km/h (2 Bft) SO 225 0 min 0 W/m 9,5 C 10,4 C 16,6 km/h (3 Bft)
09/12/2011 06:10 10,4 C 94 % 1017,6 hPa 0,0 mm 7,2 km/h (2 Bft) O-SO 247 0 min 0 W/m 9,5 C 10,4 C 7,2 km/h (2 Bft)
09/12/2011 06:15 10,5 C 94 % 1017,6 hPa 0,0 mm 9,7 km/h (2 Bft) SO 225 0 min 0 W/m 9,6 C 10,5 C 10,8 km/h (2 Bft)
09/12/2011 06:20 10,5 C 94 % 1017,5 hPa 0,0 mm 8,3 km/h (2 Bft) SO 225 0 min 0 W/m 9,6 C 10,5 C 11,2 km/h (2 Bft)
09/12/2011 06:25 10,5 C 94 % 1017,5 hPa 0,0 mm 5,4 km/h (2 Bft) O-SO 247 0 min 0 W/m 9,6 C 10,5 C 5,4 km/h (2 Bft)
09/12/2011 06:30 10,5 C 94 % 1017,5 hPa 0,0 mm 8,6 km/h (2 Bft) O-SO 247 0 min 0 W/m 9,6 C 10,5 C 8,6 km/h (2 Bft)
09/12/2011 06:35 10,5 C 94 % 1017,4 hPa 0,0 mm 13,0 km/h (3 Bft) O 270 0 min 0 W/m 9,6 C 10,5 C 16,9 km/h (3 Bft)
09/12/2011 06:40 10,5 C 94 % 1017,4 hPa 0,0 mm 8,3 km/h (2 Bft) S-SO 202 0 min 0 W/m 9,6 C 10,5 C 10,4 km/h (2 Bft)
09/12/2011 06:45 10,5 C 94 % 1017,4 hPa 0,1 mm 6,5 km/h (2 Bft) S-SO 202 0 min 0 W/m 9,6 C 10,5 C 9,7 km/h (2 Bft)
09/12/2011 06:50 10,5 C 94 % 1017,5 hPa 0,0 mm 9,4 km/h (2 Bft) SO 225 0 min 0 W/m 9,6 C 10,5 C 14,0 km/h (3 Bft)
09/12/2011 06:55 10,5 C 95 % 1017,5 hPa 0,0 mm 6,8 km/h (2 Bft) SO 225 0 min 0 W/m 9,7 C 10,5 C 13,3 km/h (3 Bft)
09/12/2011 07:00 10,5 C 95 % 1017,5 hPa 0,1 mm 8,6 km/h (2 Bft) SO 225 0 min 0 W/m 9,7 C 10,5 C 10,4 km/h (2 Bft)
09/12/2011 07:05 10,5 C 95 % 1017,4 hPa 0,0 mm 10,4 km/h (2 Bft) SO 225 0 min 0 W/m 9,7 C 10,5 C 14,0 km/h (3 Bft)
09/12/2011 07:10 10,5 C 95 % 1017,4 hPa 0,0 mm 12,6 km/h (3 Bft) SO 225 0 min 0 W/m 9,7 C 10,5 C 16,9 km/h (3 Bft)
09/12/2011 07:15 10,5 C 95 % 1017,4 hPa 0,0 mm 10,8 km/h (2 Bft) O-SO 247 0 min 0 W/m 9,7 C 10,5 C 14,4 km/h (3 Bft)
09/12/2011 07:20 10,5 C 95 % 1017,4 hPa 0,0 mm 9,0 km/h (2 Bft) O-SO 247 0 min 0 W/m 9,7 C 10,5 C 13,0 km/h (3 Bft)
09/12/2011 07:25 10,4 C 95 % 1017,4 hPa 0,0 mm 11,9 km/h (2 Bft) O-SO 247 0 min 0 W/m 9,6 C 10,4 C 17,6 km/h (3 Bft)
09/12/2011 07:30 10,4 C 95 % 1017,4 hPa 0,0 mm 6,5 km/h (2 Bft) S 180 0 min 0 W/m 9,6 C 10,4 C 7,2 km/h (2 Bft)
09/12/2011 07:35 10,4 C 95 % 1017,5 hPa 0,0 mm 8,3 km/h (2 Bft) SO 225 0 min 0 W/m 9,6 C 10,4 C 13,7 km/h (3 Bft)
09/12/2011 07:40 10,4 C 95 % 1017,7 hPa 0,0 mm 3,2 km/h (1 Bft) SO 225 0 min 0 W/m 9,6 C 10,4 C 4,3 km/h (1 Bft)
09/12/2011 07:45 10,4 C 95 % 1017,6 hPa 0,0 mm 5,4 km/h (2 Bft) O-SO 247 0 min 0 W/m 9,6 C 10,4 C 6,8 km/h (2 Bft)
09/12/2011 07:50 10,4 C 95 % 1017,6 hPa 0,0 mm 7,6 km/h (2 Bft) S-SO 202 0 min 0 W/m 9,6 C 10,4 C 10,1 km/h (2 Bft)
09/12/2011 07:55 10,4 C 95 % 1017,6 hPa 0,0 mm 7,6 km/h (2 Bft) S-SO 202 0 min 0 W/m 9,6 C 10,4 C 14,8 km/h (3 Bft)
09/12/2011 08:00 10,5 C 95 % 1017,5 hPa 0,0 mm 6,5 km/h (2 Bft) S-SO 202 0 min 0 W/m 9,7 C 10,5 C 13,0 km/h (3 Bft)
09/12/2011 08:05 10,5 C 95 % 1017,6 hPa 0,0 mm 6,1 km/h (2 Bft) SO 225 0 min 0 W/m 9,7 C 10,5 C 7,6 km/h (2 Bft)
09/12/2011 08:10 10,5 C 95 % 1017,7 hPa 0,0 mm 8,6 km/h (2 Bft) SO 225 0 min 0 W/m 9,7 C 10,5 C 10,8 km/h (2 Bft)
09/12/2011 08:15 10,4 C 95 % 1017,6 hPa 0,0 mm 5,8 km/h (2 Bft) S-SO 202 0 min 0 W/m 9,6 C 10,4 C 9,4 km/h (2 Bft)
09/12/2011 08:20 10,4 C 95 % 1017,5 hPa 0,0 mm 8,6 km/h (2 Bft) SO 225 0 min 0 W/m 9,6 C 10,4 C 11,5 km/h (2 Bft)
09/12/2011 08:25 10,4 C 95 % 1017,6 hPa 0,0 mm 6,1 km/h (2 Bft) SO 225 0 min 0 W/m 9,6 C 10,4 C 13,3 km/h (3 Bft)
09/12/2011 08:30 10,4 C 95 % 1017,6 hPa 0,0 mm 3,2 km/h (1 Bft) SO 225 0 min 0 W/m 9,6 C 10,4 C 4,3 km/h (1 Bft)
09/12/2011 08:35 10,4 C 95 % 1017,6 hPa 0,0 mm 7,2 km/h (2 Bft) S-SO 202 0 min 0 W/m 9,6 C 10,4 C 11,5 km/h (2 Bft)
09/12/2011 08:40 10,4 C 95 % 1017,6 hPa 0,0 mm 5,0 km/h (1 Bft) SO 225 0 min 0 W/m 9,6 C 10,4 C 10,4 km/h (2 Bft)
09/12/2011 08:45 10,4 C 95 % 1017,6 hPa 0,0 mm 4,3 km/h (1 Bft) S-SO 202 0 min 0 W/m 9,6 C 10,4 C 9,7 km/h (2 Bft)
09/12/2011 08:50 10,3 C 95 % 1017,6 hPa 0,0 mm 7,9 km/h (2 Bft) SO 225 0 min 0 W/m 9,5 C 10,3 C 11,5 km/h (2 Bft)
09/12/2011 08:55 10,3 C 95 % 1017,6 hPa 0,0 mm 4,3 km/h (1 Bft) S-SO 202 0 min 0 W/m 9,5 C 10,3 C 4,3 km/h (1 Bft)
09/12/2011 09:00 10,3 C 95 % 1017,6 hPa 0,0 mm 6,5 km/h (2 Bft) SO 225 0 min 0 W/m 9,5 C 10,3 C 10,8 km/h (2 Bft)
09/12/2011 09:05 10,3 C 95 % 1017,6 hPa 0,0 mm 9,0 km/h (2 Bft) S-SO 202 0 min 0 W/m 9,5 C 10,3 C 14,8 km/h (3 Bft)
09/12/2011 09:10 10,3 C 95 % 1017,7 hPa 0,0 mm 7,9 km/h (2 Bft) SO 225 0 min 0 W/m 9,5 C 10,3 C 11,9 km/h (2 Bft)
09/12/2011 09:15 10,3 C 95 % 1017,7 hPa 0,0 mm 4,0 km/h (1 Bft) SO 225 0 min 0 W/m 9,5 C 10,3 C 6,5 km/h (2 Bft)
09/12/2011 09:20 10,4 C 95 % 1017,8 hPa 0,0 mm 9,7 km/h (2 Bft) SO 225 0 min 0 W/m 9,6 C 10,4 C 9,7 km/h (2 Bft)
09/12/2011 09:25 10,4 C 95 % 1017,8 hPa 0,0 mm 4,3 km/h (1 Bft) SO 225 0 min 0 W/m 9,6 C 10,4 C 8,3 km/h (2 Bft)
09/12/2011 09:30 10,4 C 95 % 1017,7 hPa 0,0 mm 5,4 km/h (2 Bft) SO 225 0 min 0 W/m 9,6 C 10,4 C 7,6 km/h (2 Bft)
09/12/2011 09:35 10,5 C 95 % 1017,7 hPa 0,0 mm 4,3 km/h (1 Bft) S 180 0 min 0 W/m 9,7 C 10,5 C 12,2 km/h (2 Bft)
09/12/2011 09:40 10,5 C 95 % 1017,8 hPa 0,0 mm 6,8 km/h (2 Bft) O-SO 247 0 min 0 W/m 9,7 C 10,5 C 11,5 km/h (2 Bft)
09/12/2011 09:45 10,5 C 95 % 1017,7 hPa 0,0 mm 7,2 km/h (2 Bft) O-SO 247 0 min 0 W/m 9,7 C 10,5 C 13,3 km/h (3 Bft)
09/12/2011 09:50 10,6 C 95 % 1017,8 hPa 0,0 mm 9,7 km/h (2 Bft) SO 225 0 min 0 W/m 9,8 C 10,6 C 14,8 km/h (3 Bft)
09/12/2011 09:55 10,6 C 95 % 1017,9 hPa 0,0 mm 6,8 km/h (2 Bft) SO 225 0 min 0 W/m 9,8 C 10,6 C 10,4 km/h (2 Bft)
09/12/2011 10:00 10,8 C 95 % 1017,9 hPa 0,0 mm 6,8 km/h (2 Bft) S-SO 202 0 min 0 W/m 10,0 C 10,8 C 6,8 km/h (2 Bft)
09/12/2011 10:05 10,8 C 95 % 1017,8 hPa 0,0 mm 6,8 km/h (2 Bft) SO 225 0 min 0 W/m 10,0 C 10,8 C 14,0 km/h (3 Bft)
09/12/2011 10:10 10,8 C 95 % 1017,9 hPa 0,0 mm 9,0 km/h (2 Bft) O-SO 247 0 min 0 W/m 10,0 C 10,8 C 13,3 km/h (3 Bft)
09/12/2011 10:15 10,8 C 95 % 1017,9 hPa 0,0 mm 6,1 km/h (2 Bft) SO 225 0 min 0 W/m 10,0 C 10,8 C 9,7 km/h (2 Bft)
09/12/2011 10:20 10,9 C 95 % 1018,0 hPa 0,0 mm 5,4 km/h (2 Bft) S-SO 202 0 min 0 W/m 10,1 C 10,9 C 11,2 km/h (2 Bft)
09/12/2011 10:25 10,9 C 95 % 1018,0 hPa 0,0 mm 9,4 km/h (2 Bft) S-SO 202 0 min 0 W/m 10,1 C 10,9 C 13,0 km/h (3 Bft)
09/12/2011 10:30 11,0 C 94 % 1017,9 hPa 0,0 mm 9,4 km/h (2 Bft) S-SO 202 0 min 0 W/m 10,1 C 11,0 C 13,3 km/h (3 Bft)
09/12/2011 10:35 11,0 C 94 % 1017,9 hPa 0,0 mm 11,5 km/h (2 Bft) S-SO 202 0 min 0 W/m 10,1 C 11,0 C 17,3 km/h (3 Bft)
09/12/2011 10:40 11,1 C 94 % 1017,9 hPa 0,0 mm 9,0 km/h (2 Bft) O-SO 247 0 min 0 W/m 10,2 C 11,1 C 9,0 km/h (2 Bft)
09/12/2011 10:45 11,1 C 94 % 1018,0 hPa 0,0 mm 7,6 km/h (2 Bft) SO 225 0 min 0 W/m 10,2 C 11,1 C 7,6 km/h (2 Bft)
09/12/2011 10:50 11,2 C 94 % 1018,0 hPa 0,0 mm 8,6 km/h (2 Bft) SO 225 0 min 0 W/m 10,3 C 11,2 C 11,5 km/h (2 Bft)
09/12/2011 10:55 11,2 C 94 % 1018,0 hPa 0,0 mm 8,3 km/h (2 Bft) O-SO 247 0 min 0 W/m 10,3 C 11,2 C 9,7 km/h (2 Bft)
09/12/2011 11:00 11,2 C 93 % 1018,0 hPa 0,0 mm 10,8 km/h (2 Bft) S-SO 202 0 min 0 W/m 10,1 C 11,2 C 16,6 km/h (3 Bft)
09/12/2011 11:05 11,3 C 93 % 1017,9 hPa 0,0 mm 8,6 km/h (2 Bft) S-SO 202 0 min 0 W/m 10,2 C 11,3 C 13,0 km/h (3 Bft)
09/12/2011 11:10 11,3 C 93 % 1017,9 hPa 0,0 mm 10,1 km/h (2 Bft) S-SO 202 0 min 0 W/m 10,2 C 11,3 C 10,1 km/h (2 Bft)
09/12/2011 11:15 11,4 C 93 % 1017,9 hPa 0,0 mm 8,6 km/h (2 Bft) SO 225 0 min 0 W/m 10,3 C 11,4 C 11,2 km/h (2 Bft)
09/12/2011 11:20 11,4 C 92 % 1018,0 hPa 0,0 mm 7,9 km/h (2 Bft) SO 225 0 min 0 W/m 10,1 C 11,4 C 10,1 km/h (2 Bft)
09/12/2011 11:25 11,4 C 92 % 1017,9 hPa 0,0 mm 12,2 km/h (2 Bft) S-SO 202 0 min 0 W/m 10,1 C 11,4 C 12,6 km/h (3 Bft)
09/12/2011 11:30 11,5 C 92 % 1017,8 hPa 0,0 mm 10,8 km/h (2 Bft) O-SO 247 0 min 0 W/m 10,2 C 11,5 C 17,3 km/h (3 Bft)
09/12/2011 11:35 11,5 C 92 % 1017,8 hPa 0,0 mm 5,8 km/h (2 Bft) SO 225 0 min 0 W/m 10,2 C 11,5 C 8,6 km/h (2 Bft)
09/12/2011 11:40 11,5 C 92 % 1017,8 hPa 0,0 mm 8,3 km/h (2 Bft) S-SO 202 0 min 0 W/m 10,2 C 11,5 C 10,8 km/h (2 Bft)
09/12/2011 11:45 11,6 C 92 % 1017,9 hPa 0,0 mm 9,0 km/h (2 Bft) SO 225 0 min 0 W/m 10,3 C 11,6 C 13,7 km/h (3 Bft)
09/12/2011 11:50 11,6 C 92 % 1017,9 hPa 0,0 mm 10,4 km/h (2 Bft) S-SO 202 0 min 0 W/m 10,3 C 11,6 C 13,0 km/h (3 Bft)
09/12/2011 11:55 11,7 C 92 % 1017,8 hPa 0,0 mm 8,6 km/h (2 Bft) SO 225 0 min 0 W/m 10,4 C 11,7 C 11,9 km/h (2 Bft)
09/12/2011 12:00 11,7 C 91 % 1017,9 hPa 0,0 mm 6,5 km/h (2 Bft) S-SO 202 0 min 0 W/m 10,3 C 11,7 C 10,1 km/h (2 Bft)
09/12/2011 12:05 11,7 C 91 % 1017,8 hPa 0,0 mm 9,0 km/h (2 Bft) O-SO 247 0 min 0 W/m 10,3 C 11,7 C 11,9 km/h (2 Bft)
09/12/2011 12:10 11,8 C 90 % 1017,7 hPa 0,0 mm 6,1 km/h (2 Bft) SO 225 0 min 0 W/m 10,2 C 11,8 C 8,6 km/h (2 Bft)
09/12/2011 12:15 11,8 C 90 % 1017,6 hPa 0,0 mm 11,2 km/h (2 Bft) SO 225 0 min 0 W/m 10,2 C 11,8 C 11,2 km/h (2 Bft)
09/12/2011 12:20 11,9 C 91 % 1017,5 hPa 0,0 mm 4,3 km/h (1 Bft) O-SO 247 0 min 0 W/m 10,5 C 11,9 C 11,2 km/h (2 Bft)
09/12/2011 12:25 11,9 C 90 % 1017,6 hPa 0,0 mm 4,0 km/h (1 Bft) SO 225 0 min 0 W/m 10,3 C 11,9 C 4,0 km/h (1 Bft)
09/12/2011 12:30 12,1 C 90 % 1017,5 hPa 0,0 mm 1,8 km/h (1 Bft) S-SO 202 0 min 0 W/m 10,5 C 12,1 C 1,8 km/h (1 Bft)
09/12/2011 12:35 12,1 C 90 % 1017,3 hPa 0,0 mm 6,5 km/h (2 Bft) O-SO 247 0 min 0 W/m 10,5 C 12,1 C 12,6 km/h (3 Bft)
09/12/2011 12:40 12,1 C 89 % 1017,3 hPa 0,0 mm 7,2 km/h (2 Bft) S-SO 202 0 min 0 W/m 10,3 C 12,1 C 14,4 km/h (3 Bft)
09/12/2011 12:45 12,1 C 89 % 1017,3 hPa 0,0 mm 7,9 km/h (2 Bft) O-SO 247 0 min 0 W/m 10,3 C 12,1 C 10,8 km/h (2 Bft)
09/12/2011 12:50 12,1 C 88 % 1017,2 hPa 0,0 mm 11,2 km/h (2 Bft) SO 225 0 min 0 W/m 10,2 C 12,1 C 15,1 km/h (3 Bft)
09/12/2011 12:55 12,1 C 88 % 1017,2 hPa 0,0 mm 2,9 km/h (1 Bft) SO 225 0 min 0 W/m 10,2 C 12,1 C 7,6 km/h (2 Bft)
09/12/2011 13:00 12,1 C 88 % 1017,1 hPa 0,0 mm 5,0 km/h (1 Bft) O 270 0 min 0 W/m 10,2 C 12,1 C 10,4 km/h (2 Bft)
09/12/2011 13:05 12,1 C 88 % 1017,0 hPa 0,0 mm 9,4 km/h (2 Bft) S-SO 202 0 min 0 W/m 10,2 C 12,1 C 14,8 km/h (3 Bft)
09/12/2011 13:10 12,1 C 88 % 1016,9 hPa 0,0 mm 11,5 km/h (2 Bft) O-SO 247 0 min 0 W/m 10,2 C 12,1 C 11,5 km/h (2 Bft)
09/12/2011 13:15 12,2 C 88 % 1016,9 hPa 0,0 mm 4,7 km/h (1 Bft) SO 225 0 min 0 W/m 10,3 C 12,2 C 7,6 km/h (2 Bft)
09/12/2011 13:20 12,2 C 88 % 1017,0 hPa 0,0 mm 5,0 km/h (1 Bft) SO 225 0 min 0 W/m 10,3 C 12,2 C 8,6 km/h (2 Bft)
09/12/2011 13:25 12,2 C 88 % 1016,9 hPa 0,0 mm 7,6 km/h (2 Bft) SO 225 0 min 0 W/m 10,3 C 12,2 C 7,6 km/h (2 Bft)
09/12/2011 13:30 12,2 C 88 % 1016,9 hPa 0,0 mm 2,5 km/h (1 Bft) S-SO 202 0 min 0 W/m 10,3 C 12,2 C 9,7 km/h (2 Bft)
09/12/2011 13:35 12,3 C 88 % 1016,7 hPa 0,0 mm 8,6 km/h (2 Bft) SO 225 0 min 0 W/m 10,4 C 12,3 C 14,0 km/h (3 Bft)
09/12/2011 13:40 12,3 C 88 % 1016,7 hPa 0,0 mm 9,0 km/h (2 Bft) O-SO 247 0 min 0 W/m 10,4 C 12,3 C 14,8 km/h (3 Bft)
09/12/2011 13:45 12,1 C 89 % 1016,6 hPa 0,0 mm 11,5 km/h (2 Bft) SO 225 0 min 0 W/m 10,3 C 12,1 C 11,5 km/h (2 Bft)
09/12/2011 13:50 12,1 C 90 % 1016,5 hPa 0,0 mm 12,6 km/h (3 Bft) S-SO 202 0 min 0 W/m 10,5 C 12,1 C 18,0 km/h (3 Bft)
09/12/2011 13:55 12,0 C 90 % 1016,6 hPa 0,0 mm 2,9 km/h (1 Bft) SO 225 0 min 0 W/m 10,4 C 12,0 C 3,2 km/h (1 Bft)
09/12/2011 14:00 11,9 C 90 % 1016,6 hPa 0,0 mm 3,6 km/h (1 Bft) S-SO 202 0 min 0 W/m 10,3 C 11,9 C 9,0 km/h (2 Bft)
09/12/2011 14:05 11,9 C 90 % 1016,4 hPa 0,0 mm 6,8 km/h (2 Bft) S-SO 202 0 min 0 W/m 10,3 C 11,9 C 13,0 km/h (3 Bft)
09/12/2011 14:10 11,9 C 90 % 1016,3 hPa 0,0 mm 7,2 km/h (2 Bft) S-SO 202 0 min 0 W/m 10,3 C 11,9 C 9,7 km/h (2 Bft)
09/12/2011 14:15 12,0 C 89 % 1016,3 hPa 0,0 mm 11,9 km/h (2 Bft) S-SO 202 0 min 0 W/m 10,2 C 12,0 C 16,9 km/h (3 Bft)
09/12/2011 14:20 12,1 C 88 % 1016,3 hPa 0,0 mm 10,4 km/h (2 Bft) SO 225 0 min 0 W/m 10,2 C 12,1 C 16,9 km/h (3 Bft)
09/12/2011 14:25 12,1 C 88 % 1016,2 hPa 0,0 mm 10,8 km/h (2 Bft) S-SO 202 0 min 0 W/m 10,2 C 12,1 C 14,8 km/h (3 Bft)
09/12/2011 14:30 12,2 C 87 % 1016,1 hPa 0,0 mm 10,4 km/h (2 Bft) O-SO 247 0 min 0 W/m 10,1 C 12,2 C 15,5 km/h (3 Bft)
09/12/2011 14:35 12,2 C 87 % 1016,1 hPa 0,0 mm 9,4 km/h (2 Bft) SO 225 0 min 0 W/m 10,1 C 12,2 C 9,4 km/h (2 Bft)
09/12/2011 14:40 12,2 C 87 % 1016,2 hPa 0,0 mm 9,4 km/h (2 Bft) SO 225 0 min 0 W/m 10,1 C 12,2 C 10,8 km/h (2 Bft)
09/12/2011 14:45 12,2 C 86 % 1016,2 hPa 0,0 mm 11,5 km/h (2 Bft) SO 225 0 min 0 W/m 9,9 C 12,2 C 17,6 km/h (3 Bft)
09/12/2011 14:50 12,2 C 87 % 1016,1 hPa 0,0 mm 6,1 km/h (2 Bft) O-SO 247 0 min 0 W/m 10,1 C 12,2 C 13,0 km/h (3 Bft)
09/12/2011 14:55 12,2 C 87 % 1016,2 hPa 0,0 mm 9,7 km/h (2 Bft) S-SE 157 0 min 0 W/m 10,1 C 12,2 C 15,8 km/h (3 Bft)
09/12/2011 15:00 12,2 C 87 % 1016,2 hPa 0,0 mm 7,9 km/h (2 Bft) S-SO 202 0 min 0 W/m 10,1 C 12,2 C 12,2 km/h (2 Bft)
09/12/2011 15:05 12,2 C 87 % 1016,3 hPa 0,0 mm 8,3 km/h (2 Bft) SO 225 0 min 0 W/m 10,1 C 12,2 C 9,4 km/h (2 Bft)
09/12/2011 15:10 12,2 C 87 % 1016,2 hPa 0,0 mm 5,8 km/h (2 Bft) S-SO 202 0 min 0 W/m 10,1 C 12,2 C 7,9 km/h (2 Bft)
09/12/2011 15:15 12,2 C 87 % 1016,3 hPa 0,0 mm 5,4 km/h (2 Bft) SO 225 0 min 0 W/m 10,1 C 12,2 C 7,6 km/h (2 Bft)
09/12/2011 15:20 12,2 C 88 % 1016,2 hPa 0,0 mm 6,1 km/h (2 Bft) O 270 0 min 0 W/m 10,3 C 12,2 C 8,6 km/h (2 Bft)
09/12/2011 15:25 12,1 C 88 % 1016,3 hPa 0,0 mm 2,2 km/h (1 Bft) SO 225 0 min 0 W/m 10,2 C 12,1 C 3,6 km/h (1 Bft)
09/12/2011 15:30 12,1 C 88 % 1016,2 hPa 0,0 mm 7,6 km/h (2 Bft) SO 225 0 min 0 W/m 10,2 C 12,1 C 7,6 km/h (2 Bft)
09/12/2011 15:35 12,0 C 89 % 1016,2 hPa 0,0 mm 3,2 km/h (1 Bft) SO 225 0 min 0 W/m 10,2 C 12,0 C 4,0 km/h (1 Bft)
09/12/2011 15:40 12,0 C 89 % 1016,2 hPa 0,0 mm 5,4 km/h (2 Bft) SO 225 0 min 0 W/m 10,2 C 12,0 C 9,7 km/h (2 Bft)
09/12/2011 15:45 11,9 C 89 % 1016,1 hPa 0,0 mm 6,5 km/h (2 Bft) S-SO 202 0 min 0 W/m 10,1 C 11,9 C 6,8 km/h (2 Bft)
09/12/2011 15:50 11,9 C 89 % 1016,1 hPa 0,0 mm 7,6 km/h (2 Bft) SO 225 0 min 0 W/m 10,1 C 11,9 C 10,1 km/h (2 Bft)
09/12/2011 15:55 11,9 C 89 % 1016,0 hPa 0,0 mm 6,1 km/h (2 Bft) S-SO 202 0 min 0 W/m 10,1 C 11,9 C 11,9 km/h (2 Bft)
09/12/2011 16:00 11,8 C 89 % 1016,0 hPa 0,0 mm 6,1 km/h (2 Bft) S-SO 202 0 min 0 W/m 10,0 C 11,8 C 8,3 km/h (2 Bft)
09/12/2011 16:05 11,8 C 90 % 1016,0 hPa 0,0 mm 6,5 km/h (2 Bft) S-SO 202 0 min 0 W/m 10,2 C 11,8 C 9,4 km/h (2 Bft)
09/12/2011 16:10 11,8 C 90 % 1016,0 hPa 0,0 mm 4,3 km/h (1 Bft) SO 225 0 min 0 W/m 10,2 C 11,8 C 4,3 km/h (1 Bft)
09/12/2011 16:15 11,8 C 90 % 1016,0 hPa 0,0 mm 7,6 km/h (2 Bft) S-SO 202 0 min 0 W/m 10,2 C 11,8 C 11,2 km/h (2 Bft)
09/12/2011 16:20 11,8 C 90 % 1016,0 hPa 0,0 mm 1,8 km/h (1 Bft) SO 225 0 min 0 W/m 10,2 C 11,8 C 1,8 km/h (1 Bft)
09/12/2011 16:25 11,8 C 90 % 1016,0 hPa 0,0 mm 11,5 km/h (2 Bft) S-SO 202 0 min 0 W/m 10,2 C 11,8 C 19,8 km/h (3 Bft)
09/12/2011 16:30 11,7 C 90 % 1016,1 hPa 0,0 mm 6,5 km/h (2 Bft) S-SO 202 0 min 0 W/m 10,1 C 11,7 C 9,0 km/h (2 Bft)
09/12/2011 16:35 11,7 C 90 % 1016,2 hPa 0,0 mm 6,1 km/h (2 Bft) SO 225 0 min 0 W/m 10,1 C 11,7 C 6,1 km/h (2 Bft)
09/12/2011 16:40 11,6 C 90 % 1016,1 hPa 0,0 mm 7,2 km/h (2 Bft) SO 225 0 min 0 W/m 10,0 C 11,6 C 10,1 km/h (2 Bft)
09/12/2011 16:45 11,6 C 90 % 1016,1 hPa 0,0 mm 5,4 km/h (2 Bft) S 180 0 min 0 W/m 10,0 C 11,6 C 7,9 km/h (2 Bft)
09/12/2011 16:50 11,6 C 90 % 1016,2 hPa 0,0 mm 7,9 km/h (2 Bft) SO 225 0 min 0 W/m 10,0 C 11,6 C 7,9 km/h (2 Bft)
09/12/2011 16:55 11,5 C 90 % 1016,1 hPa 0,0 mm 3,6 km/h (1 Bft) S-SO 202 0 min 0 W/m 9,9 C 11,5 C 6,5 km/h (2 Bft)
09/12/2011 17:00 11,4 C 90 % 1016,1 hPa 0,0 mm 6,1 km/h (2 Bft) S-SO 202 0 min 0 W/m 9,8 C 11,4 C 12,2 km/h (2 Bft)
09/12/2011 17:05 11,4 C 90 % 1016,0 hPa 0,0 mm 6,1 km/h (2 Bft) SO 225 0 min 0 W/m 9,8 C 11,4 C 9,4 km/h (2 Bft)
09/12/2011 17:10 11,3 C 90 % 1016,0 hPa 0,0 mm 7,2 km/h (2 Bft) O-SO 247 0 min 0 W/m 9,7 C 11,3 C 12,6 km/h (3 Bft)
09/12/2011 17:15 11,2 C 90 % 1016,0 hPa 0,0 mm 6,8 km/h (2 Bft) SO 225 0 min 0 W/m 9,6 C 11,2 C 15,5 km/h (3 Bft)
09/12/2011 17:20 11,2 C 90 % 1016,0 hPa 0,0 mm 4,7 km/h (1 Bft) SO 225 0 min 0 W/m 9,6 C 11,2 C 7,9 km/h (2 Bft)
09/12/2011 17:25 11,1 C 90 % 1016,0 hPa 0,0 mm 7,2 km/h (2 Bft) S-SO 202 0 min 0 W/m 9,5 C 11,1 C 14,4 km/h (3 Bft)
09/12/2011 17:30 11,1 C 90 % 1015,9 hPa 0,0 mm 9,7 km/h (2 Bft) S-SO 202 0 min 0 W/m 9,5 C 11,1 C 10,4 km/h (2 Bft)
09/12/2011 17:35 11,1 C 90 % 1015,9 hPa 0,0 mm 7,9 km/h (2 Bft) SO 225 0 min 0 W/m 9,5 C 11,1 C 7,9 km/h (2 Bft)
09/12/2011 17:40 11,0 C 90 % 1015,9 hPa 0,0 mm 5,8 km/h (2 Bft) SO 225 0 min 0 W/m 9,4 C 11,0 C 8,3 km/h (2 Bft)
09/12/2011 17:45 10,9 C 90 % 1015,9 hPa 0,0 mm 4,7 km/h (1 Bft) SO 225 0 min 0 W/m 9,3 C 10,9 C 10,4 km/h (2 Bft)
09/12/2011 17:50 10,9 C 91 % 1015,9 hPa 0,0 mm 7,9 km/h (2 Bft) SO 225 0 min 0 W/m 9,5 C 10,9 C 11,9 km/h (2 Bft)
09/12/2011 17:55 10,9 C 91 % 1015,8 hPa 0,0 mm 10,1 km/h (2 Bft) SO 225 0 min 0 W/m 9,5 C 10,9 C 15,8 km/h (3 Bft)
09/12/2011 18:00 10,9 C 91 % 1015,9 hPa 0,0 mm 5,8 km/h (2 Bft) SO 225 0 min 0 W/m 9,5 C 10,9 C 10,4 km/h (2 Bft)
09/12/2011 18:05 10,9 C 91 % 1015,9 hPa 0,0 mm 4,3 km/h (1 Bft) SO 225 0 min 0 W/m 9,5 C 10,9 C 9,0 km/h (2 Bft)
09/12/2011 18:10 10,9 C 91 % 1015,9 hPa 0,0 mm 5,4 km/h (2 Bft) SO 225 0 min 0 W/m 9,5 C 10,9 C 5,4 km/h (2 Bft)
09/12/2011 18:15 10,9 C 91 % 1016,0 hPa 0,0 mm 5,4 km/h (2 Bft) SO 225 0 min 0 W/m 9,5 C 10,9 C 14,0 km/h (3 Bft)
09/12/2011 18:20 10,9 C 91 % 1015,9 hPa 0,0 mm 4,0 km/h (1 Bft) S-SO 202 0 min 0 W/m 9,5 C 10,9 C 11,9 km/h (2 Bft)
09/12/2011 18:25 10,9 C 92 % 1016,0 hPa 0,0 mm 7,9 km/h (2 Bft) SO 225 0 min 0 W/m 9,7 C 10,9 C 10,4 km/h (2 Bft)
09/12/2011 18:30 10,9 C 92 % 1016,0 hPa 0,0 mm 7,6 km/h (2 Bft) SO 225 0 min 0 W/m 9,7 C 10,9 C 10,4 km/h (2 Bft)
09/12/2011 18:35 10,9 C 92 % 1015,9 hPa 0,0 mm 7,6 km/h (2 Bft) S-SO 202 0 min 0 W/m 9,7 C 10,9 C 9,4 km/h (2 Bft)
09/12/2011 18:40 10,9 C 92 % 1015,8 hPa 0,0 mm 10,1 km/h (2 Bft) S-SO 202 0 min 0 W/m 9,7 C 10,9 C 12,6 km/h (3 Bft)
09/12/2011 18:45 10,9 C 92 % 1015,8 hPa 0,0 mm 7,6 km/h (2 Bft) S-SO 202 0 min 0 W/m 9,7 C 10,9 C 11,9 km/h (2 Bft)
09/12/2011 18:50 10,8 C 92 % 1015,8 hPa 0,0 mm 6,5 km/h (2 Bft) O-SO 247 0 min 0 W/m 9,6 C 10,8 C 9,7 km/h (2 Bft)
09/12/2011 18:55 10,8 C 92 % 1015,8 hPa 0,0 mm 9,7 km/h (2 Bft) SO 225 0 min 0 W/m 9,6 C 10,8 C 15,1 km/h (3 Bft)
09/12/2011 19:00 10,8 C 93 % 1015,8 hPa 0,0 mm 9,7 km/h (2 Bft) SO 225 0 min 0 W/m 9,7 C 10,8 C 13,0 km/h (3 Bft)
09/12/2011 19:05 10,8 C 93 % 1015,9 hPa 0,1 mm 6,5 km/h (2 Bft) SO 225 0 min 0 W/m 9,7 C 10,8 C 8,6 km/h (2 Bft)
09/12/2011 19:10 10,8 C 93 % 1015,8 hPa 0,0 mm 6,5 km/h (2 Bft) O-SO 247 0 min 0 W/m 9,7 C 10,8 C 9,4 km/h (2 Bft)
09/12/2011 19:15 10,8 C 93 % 1015,9 hPa 0,0 mm 7,2 km/h (2 Bft) SO 225 0 min 0 W/m 9,7 C 10,8 C 8,6 km/h (2 Bft)
09/12/2011 19:20 10,8 C 93 % 1015,8 hPa 0,0 mm 2,2 km/h (1 Bft) S-SO 202 0 min 0 W/m 9,7 C 10,8 C 4,0 km/h (1 Bft)
09/12/2011 19:25 10,7 C 93 % 1015,8 hPa 0,0 mm 3,2 km/h (1 Bft) SO 225 0 min 0 W/m 9,6 C 10,7 C 6,1 km/h (2 Bft)
09/12/2011 19:30 10,6 C 93 % 1015,8 hPa 0,0 mm 2,9 km/h (1 Bft) S-SO 202 0 min 0 W/m 9,5 C 10,6 C 2,9 km/h (1 Bft)
09/12/2011 19:35 10,6 C 93 % 1015,8 hPa 0,0 mm 6,8 km/h (2 Bft) S 180 0 min 0 W/m 9,5 C 10,6 C 10,1 km/h (2 Bft)
09/12/2011 19:40 10,6 C 93 % 1015,7 hPa 0,0 mm 7,9 km/h (2 Bft) O-SO 247 0 min 0 W/m 9,5 C 10,6 C 11,2 km/h (2 Bft)
09/12/2011 19:45 10,6 C 93 % 1015,7 hPa 0,0 mm 11,9 km/h (2 Bft) S-SO 202 0 min 0 W/m 9,5 C 10,6 C 13,3 km/h (3 Bft)
09/12/2011 19:50 10,6 C 93 % 1015,7 hPa 0,0 mm 6,5 km/h (2 Bft) SO 225 0 min 0 W/m 9,5 C 10,6 C 7,2 km/h (2 Bft)
09/12/2011 19:55 10,7 C 93 % 1015,6 hPa 0,0 mm 8,3 km/h (2 Bft) SO 225 0 min 0 W/m 9,6 C 10,7 C 15,8 km/h (3 Bft)
09/12/2011 20:00 10,6 C 93 % 1015,5 hPa 0,0 mm 7,6 km/h (2 Bft) SO 225 0 min 0 W/m 9,5 C 10,6 C 10,1 km/h (2 Bft)
09/12/2011 20:05 10,7 C 93 % 1015,6 hPa 0,0 mm 6,1 km/h (2 Bft) O-SO 247 0 min 0 W/m 9,6 C 10,7 C 11,5 km/h (2 Bft)
09/12/2011 20:10 10,7 C 93 % 1015,6 hPa 0,0 mm 5,4 km/h (2 Bft) S-SO 202 0 min 0 W/m 9,6 C 10,7 C 5,4 km/h (2 Bft)
09/12/2011 20:15 10,6 C 93 % 1015,5 hPa 0,0 mm 7,9 km/h (2 Bft) S-SO 202 0 min 0 W/m 9,5 C 10,6 C 10,1 km/h (2 Bft)
09/12/2011 20:20 10,6 C 93 % 1015,4 hPa 0,0 mm 6,1 km/h (2 Bft) S 180 0 min 0 W/m 9,5 C 10,6 C 6,8 km/h (2 Bft)
09/12/2011 20:25 10,6 C 93 % 1015,4 hPa 0,0 mm 8,3 km/h (2 Bft) S-SO 202 0 min 0 W/m 9,5 C 10,6 C 9,0 km/h (2 Bft)
09/12/2011 20:30 10,6 C 93 % 1015,5 hPa 0,0 mm 7,2 km/h (2 Bft) S 180 0 min 0 W/m 9,5 C 10,6 C 10,1 km/h (2 Bft)
09/12/2011 20:35 10,6 C 93 % 1015,4 hPa 0,0 mm 5,4 km/h (2 Bft) SO 225 0 min 0 W/m 9,5 C 10,6 C 9,0 km/h (2 Bft)
09/12/2011 20:40 10,5 C 93 % 1015,5 hPa 0,0 mm 5,0 km/h (1 Bft) SO 225 0 min 0 W/m 9,4 C 10,5 C 8,6 km/h (2 Bft)
09/12/2011 20:45 10,5 C 93 % 1015,6 hPa 0,0 mm 9,0 km/h (2 Bft) O-SO 247 0 min 0 W/m 9,4 C 10,5 C 10,8 km/h (2 Bft)
09/12/2011 20:50 10,4 C 93 % 1015,7 hPa 0,0 mm 8,6 km/h (2 Bft) S-SO 202 0 min 0 W/m 9,3 C 10,4 C 9,4 km/h (2 Bft)
09/12/2011 20:55 10,4 C 93 % 1015,7 hPa 0,0 mm 6,1 km/h (2 Bft) S-SO 202 0 min 0 W/m 9,3 C 10,4 C 9,7 km/h (2 Bft)
09/12/2011 21:00 10,4 C 93 % 1015,6 hPa 0,0 mm 8,6 km/h (2 Bft) S-SO 202 0 min 0 W/m 9,3 C 10,4 C 8,6 km/h (2 Bft)
09/12/2011 21:05 10,4 C 93 % 1015,7 hPa 0,0 mm 4,3 km/h (1 Bft) SO 225 0 min 0 W/m 9,3 C 10,4 C 4,3 km/h (1 Bft)
09/12/2011 21:10 10,4 C 93 % 1015,7 hPa 0,0 mm 7,6 km/h (2 Bft) SO 225 0 min 0 W/m 9,3 C 10,4 C 13,3 km/h (3 Bft)
09/12/2011 21:15 10,4 C 93 % 1015,7 hPa 0,0 mm 6,5 km/h (2 Bft) SO 225 0 min 0 W/m 9,3 C 10,4 C 7,9 km/h (2 Bft)
09/12/2011 21:20 10,4 C 93 % 1015,5 hPa 0,0 mm 4,0 km/h (1 Bft) SO 225 0 min 0 W/m 9,3 C 10,4 C 4,0 km/h (1 Bft)
09/12/2011 21:25 10,5 C 93 % 1015,5 hPa 0,0 mm 4,0 km/h (1 Bft) SO 225 0 min 0 W/m 9,4 C 10,5 C 6,1 km/h (2 Bft)
09/12/2011 21:30 10,5 C 93 % 1015,5 hPa 0,0 mm 6,1 km/h (2 Bft) O-SO 247 0 min 0 W/m 9,4 C 10,5 C 10,8 km/h (2 Bft)
09/12/2011 21:35 10,5 C 93 % 1015,6 hPa 0,0 mm 7,9 km/h (2 Bft) SO 225 0 min 0 W/m 9,4 C 10,5 C 11,2 km/h (2 Bft)
09/12/2011 21:40 10,4 C 93 % 1015,6 hPa 0,0 mm 7,6 km/h (2 Bft) SO 225 0 min 0 W/m 9,3 C 10,4 C 8,6 km/h (2 Bft)
09/12/2011 21:45 10,5 C 93 % 1015,6 hPa 0,0 mm 7,9 km/h (2 Bft) SO 225 0 min 0 W/m 9,4 C 10,5 C 10,4 km/h (2 Bft)
09/12/2011 21:50 10,5 C 93 % 1015,6 hPa 0,0 mm 9,0 km/h (2 Bft) SO 225 0 min 0 W/m 9,4 C 10,5 C 13,3 km/h (3 Bft)
09/12/2011 21:55 10,5 C 93 % 1015,5 hPa 0,0 mm 10,1 km/h (2 Bft) S-SE 157 0 min 0 W/m 9,4 C 10,5 C 14,4 km/h (3 Bft)
09/12/2011 22:00 10,5 C 93 % 1015,6 hPa 0,0 mm 9,0 km/h (2 Bft) O-SO 247 0 min 0 W/m 9,4 C 10,5 C 9,4 km/h (2 Bft)
09/12/2011 22:05 10,5 C 93 % 1015,5 hPa 0,0 mm 4,0 km/h (1 Bft) SO 225 0 min 0 W/m 9,4 C 10,5 C 4,0 km/h (1 Bft)
09/12/2011 22:10 10,5 C 93 % 1015,4 hPa 0,0 mm 9,0 km/h (2 Bft) O-SO 247 0 min 0 W/m 9,4 C 10,5 C 15,1 km/h (3 Bft)
09/12/2011 22:15 10,6 C 93 % 1015,5 hPa 0,0 mm 3,2 km/h (1 Bft) SO 225 0 min 0 W/m 9,5 C 10,6 C 6,1 km/h (2 Bft)
09/12/2011 22:20 10,5 C 93 % 1015,4 hPa 0,0 mm 5,0 km/h (1 Bft) SO 225 0 min 0 W/m 9,4 C 10,5 C 10,4 km/h (2 Bft)
09/12/2011 22:25 10,6 C 93 % 1015,4 hPa 0,0 mm 5,0 km/h (1 Bft) O-SO 247 0 min 0 W/m 9,5 C 10,6 C 11,9 km/h (2 Bft)
09/12/2011 22:30 10,6 C 93 % 1015,4 hPa 0,0 mm 8,6 km/h (2 Bft) SO 225 0 min 0 W/m 9,5 C 10,6 C 9,7 km/h (2 Bft)
09/12/2011 22:35 10,5 C 93 % 1015,4 hPa 0,0 mm 10,4 km/h (2 Bft) SO 225 0 min 0 W/m 9,4 C 10,5 C 14,4 km/h (3 Bft)
09/12/2011 22:40 10,5 C 93 % 1015,4 hPa 0,0 mm 5,8 km/h (2 Bft) SO 225 0 min 0 W/m 9,4 C 10,5 C 7,9 km/h (2 Bft)
09/12/2011 22:45 10,4 C 93 % 1015,4 hPa 0,0 mm 6,8 km/h (2 Bft) SO 225 0 min 0 W/m 9,3 C 10,4 C 9,7 km/h (2 Bft)
_ Min-Heure 09:15 14:45 22:45 - 16:20 - - - - 00:05 09:15 16:20
Minimum _ 10,3 C 86 % 1015,4 hPa - 1,8 km/h (1 Bft) - - - - 9,0 C 10,3 C 1,8 km/h (1 Bft)
_ Max-Heure 13:40 10:25 00:45 19:05 00:25 - - 22:45 22:45 13:50 13:40 00:45
Maximum _ 12,3 C 95 % 1019,9 hPa 0,1 mm 13,3 km/h
S-SO (3 Bft)
- - 0 min 0 W/m 10,5 C 12,3 C 20,5 km/h
SO (4 Bft)
Moyenne _ 10,9 C 92 % 1017,2 hPa #0,7 mm 7,5 km/h (2 Bft) SO - #0 min. 0 W/m 9,7 C 10,9 C 10,9 km/h (2 Bft)
Saint Bonnet de Bellac- Haute Vienne - France